Time,TemperatureF,DewpointF,PressureIn,WindDirection,WindDirectionDegrees,WindSpeedMPH,WindSpeedGustMPH,Humidity,HourlyPrecipIn,Conditions,Clouds,dailyrainin,SoftwareType,DateUTC
2013-01-16 00:02:00,21.0,20.0,-100.00,WSW,255,0.0,2.0,95,-99.99,,,-99.99,,2013-01-16 06:02:00,
2013-01-16 00:12:00,21.0,20.0,-100.00,WNW,300,0.0,0.0,96,-99.99,,,-99.99,,2013-01-16 06:12:00,
2013-01-16 00:22:00,20.0,20.0,-100.00,WNW,300,0.0,0.0,97,-99.99,,,-99.99,,2013-01-16 06:22:00,
2013-01-16 00:32:00,20.0,20.0,-100.00,WNW,300,0.0,0.0,97,-99.99,,,-99.99,,2013-01-16 06:32:00,
2013-01-16 00:43:00,21.0,21.0,-100.00,West,275,0.0,4.0,98,-99.99,,,-99.99,,2013-01-16 06:43:00,
2013-01-16 00:53:00,20.0,20.0,-100.00,West,270,0.0,0.0,99,-99.99,,,-99.99,,2013-01-16 06:53:00,
2013-01-16 01:02:00,20.0,20.0,-100.00,West,270,0.0,0.0,99,-99.99,,,-99.99,,2013-01-16 07:02:00,
2013-01-16 01:12:00,20.0,20.0,-100.00,West,265,0.0,4.0,99,-99.99,,,-99.99,,2013-01-16 07:12:00,
2013-01-16 01:22:00,19.0,19.0,-100.00,West,280,1.0,4.0,99,-99.99,,,-99.99,,2013-01-16 07:22:00,
2013-01-16 01:33:00,19.0,19.0,-100.00,West,280,1.0,4.0,99,-99.99,,,-99.99,,2013-01-16 07:33:00,
2013-01-16 01:42:00,20.0,19.0,-100.00,West,270,1.0,6.0,99,-99.99,,,-99.99,,2013-01-16 07:42:00,
2013-01-16 01:52:00,19.0,19.0,-100.00,WSW,255,2.0,5.0,99,-99.99,,,-99.99,,2013-01-16 07:52:00,
2013-01-16 02:02:00,19.0,19.0,-100.00,WSW,255,2.0,5.0,99,-99.99,,,-99.99,,2013-01-16 08:02:00,
2013-01-16 02:12:00,19.0,19.0,-100.00,West,270,0.0,5.0,99,-99.99,,,-99.99,,2013-01-16 08:12:00,
2013-01-16 02:22:00,18.0,18.0,-100.00,West,275,0.0,1.0,99,-99.99,,,-99.99,,2013-01-16 08:22:00,
2013-01-16 02:32:00,18.0,18.0,-100.00,West,275,0.0,1.0,99,-99.99,,,-99.99,,2013-01-16 08:32:00,
2013-01-16 02:42:00,18.0,18.0,-100.00,West,265,1.0,5.0,99,-99.99,,,-99.99,,2013-01-16 08:42:00,
2013-01-16 02:53:00,18.0,18.0,-100.00,West,260,0.0,4.0,99,-99.99,,,-99.99,,2013-01-16 08:53:00,
2013-01-16 03:02:00,18.0,18.0,-100.00,West,260,0.0,4.0,99,-99.99,,,-99.99,,2013-01-16 09:02:00,
2013-01-16 03:12:00,18.0,17.0,-100.00,WSW,245,0.0,0.0,99,-99.99,,,-99.99,,2013-01-16 09:12:00,
2013-01-16 03:22:00,17.0,17.0,-100.00,SW,235,0.0,0.0,99,-99.99,,,-99.99,,2013-01-16 09:22:00,
2013-01-16 03:32:00,17.0,17.0,-100.00,SW,235,0.0,0.0,99,-99.99,,,-99.99,,2013-01-16 09:32:00,
2013-01-16 03:42:00,17.0,16.0,-100.00,SW,230,0.0,0.0,99,-99.99,,,-99.99,,2013-01-16 09:42:00,
2013-01-16 03:53:00,16.0,16.0,-100.00,South,175,1.0,3.0,99,-99.99,,,-99.99,,2013-01-16 09:53:00,
2013-01-16 04:02:00,16.0,16.0,-100.00,South,175,1.0,3.0,99,-99.99,,,-99.99,,2013-01-16 10:02:00,
2013-01-16 04:12:00,16.0,16.0,-100.00,South,175,1.0,4.0,99,-99.99,,,-99.99,,2013-01-16 10:12:00,
2013-01-16 04:22:00,16.0,16.0,-100.00,SSE,155,2.0,4.0,99,-99.99,,,-99.99,,2013-01-16 10:22:00,
2013-01-16 04:32:00,16.0,16.0,-100.00,SSE,155,2.0,4.0,99,-99.99,,,-99.99,,2013-01-16 10:32:00,
2013-01-16 04:42:00,15.0,15.0,-100.00,SSW,195,0.0,3.0,99,-99.99,,,-99.99,,2013-01-16 10:42:00,
2013-01-16 04:53:00,16.0,16.0,-100.00,South,185,0.0,1.0,99,-99.99,,,-99.99,,2013-01-16 10:53:00,
2013-01-16 05:02:00,16.0,16.0,-100.00,South,185,0.0,1.0,99,-99.99,,,-99.99,,2013-01-16 11:02:00,
2013-01-16 05:12:00,16.0,16.0,-100.00,SSE,160,1.0,4.0,99,-99.99,,,-99.99,,2013-01-16 11:12:00,
2013-01-16 05:22:00,16.0,15.0,-100.00,SSE,160,1.0,4.0,99,-99.99,,,-99.99,,2013-01-16 11:22:00,
2013-01-16 05:33:00,16.0,15.0,-100.00,SSE,160,1.0,4.0,99,-99.99,,,-99.99,,2013-01-16 11:33:00,
2013-01-16 05:42:00,15.0,15.0,-100.00,SSW,205,0.0,4.0,99,-99.99,,,-99.99,,2013-01-16 11:42:00,
2013-01-16 05:53:00,15.0,15.0,-100.00,SSW,195,3.0,4.0,99,-99.99,,,-99.99,,2013-01-16 11:53:00,
2013-01-16 06:03:00,15.0,15.0,-100.00,SSW,195,3.0,4.0,99,-99.99,,,-99.99,,2013-01-16 12:03:00,
2013-01-16 06:13:00,15.0,15.0,-100.00,SSW,195,0.0,4.0,99,-99.99,,,-99.99,,2013-01-16 12:13:00,
2013-01-16 06:22:00,15.0,15.0,-100.00,SSW,195,4.0,6.0,99,-99.99,,,-99.99,,2013-01-16 12:22:00,
2013-01-16 06:33:00,15.0,15.0,-100.00,SSW,195,4.0,6.0,99,-99.99,,,-99.99,,2013-01-16 12:33:00,
2013-01-16 06:43:00,16.0,15.0,-100.00,SSW,210,4.0,5.0,99,-99.99,,,-99.99,,2013-01-16 12:43:00,
2013-01-16 06:53:00,15.0,15.0,-100.00,WSW,240,0.0,4.0,99,-99.99,,,-99.99,,2013-01-16 12:53:00,
2013-01-16 07:03:00,15.0,15.0,-100.00,WSW,240,0.0,4.0,99,-99.99,,,-99.99,,2013-01-16 13:03:00,
2013-01-16 07:12:00,16.0,15.0,-100.00,SSW,200,4.0,5.0,99,-99.99,,,-99.99,,2013-01-16 13:12:00,
2013-01-16 07:22:00,15.0,15.0,-100.00,South,185,4.0,5.0,99,-99.99,,,-99.99,,2013-01-16 13:22:00,
2013-01-16 07:33:00,15.0,15.0,-100.00,South,190,3.0,6.0,99,-99.99,,,-99.99,,2013-01-16 13:33:00,
2013-01-16 07:43:00,15.0,15.0,-100.00,South,190,3.0,6.0,99,-99.99,,,-99.99,,2013-01-16 13:43:00,
2013-01-16 07:53:00,16.0,15.0,-100.00,South,190,4.0,6.0,99,-99.99,,,-99.99,,2013-01-16 13:53:00,
2013-01-16 08:03:00,16.0,15.0,-100.00,South,190,4.0,6.0,99,-99.99,,,-99.99,,2013-01-16 14:03:00,
2013-01-16 08:12:00,16.0,15.0,-100.00,South,180,4.0,6.0,99,-99.99,,,-99.99,,2013-01-16 14:12:00,
2013-01-16 08:23:00,16.0,16.0,-100.00,SSE,165,6.0,9.0,99,-99.99,,,-99.99,,2013-01-16 14:23:00,
2013-01-16 08:33:00,16.0,16.0,-100.00,SSE,165,6.0,9.0,99,-99.99,,,-99.99,,2013-01-16 14:33:00,
2013-01-16 08:43:00,18.0,18.0,-100.00,South,185,5.0,9.0,99,-99.99,,,-99.99,,2013-01-16 14:43:00,
2013-01-16 08:53:00,19.0,19.0,-100.00,SSW,195,5.0,9.0,99,-99.99,,,-99.99,,2013-01-16 14:53:00,
2013-01-16 09:03:00,19.0,19.0,-100.00,SSW,195,5.0,9.0,99,-99.99,,,-99.99,,2013-01-16 15:03:00,
2013-01-16 09:12:00,21.0,21.0,-100.00,SSW,210,6.0,10.0,99,-99.99,,,-99.99,,2013-01-16 15:12:00,
2013-01-16 09:23:00,22.0,21.0,-100.00,SSW,210,5.0,11.0,97,-99.99,,,-99.99,,2013-01-16 15:23:00,
2013-01-16 09:33:00,22.0,21.0,-100.00,SSW,210,5.0,11.0,97,-99.99,,,-99.99,,2013-01-16 15:33:00,
2013-01-16 09:43:00,23.0,22.0,-100.00,SSW,200,6.0,12.0,93,-99.99,,,-99.99,,2013-01-16 15:43:00,
2013-01-16 09:53:00,25.0,22.0,-100.00,South,190,6.0,13.0,90,-99.99,,,-99.99,,2013-01-16 15:53:00,
2013-01-16 10:03:00,25.0,22.0,-100.00,South,190,6.0,13.0,90,-99.99,,,-99.99,,2013-01-16 16:03:00,
2013-01-16 10:12:00,26.0,23.0,-100.00,SSW,195,7.0,14.0,87,-99.99,,,-99.99,,2013-01-16 16:12:00,
2013-01-16 10:22:00,27.0,23.0,-100.00,SSW,210,9.0,14.0,85,-99.99,,,-99.99,,2013-01-16 16:22:00,
2013-01-16 10:33:00,27.0,23.0,-100.00,SSW,210,9.0,14.0,85,-99.99,,,-99.99,,2013-01-16 16:33:00,
2013-01-16 10:42:00,27.0,23.0,-100.00,SSW,205,7.0,14.0,84,-99.99,,,-99.99,,2013-01-16 16:42:00,
2013-01-16 10:53:00,28.0,23.0,-100.00,SSW,210,8.0,14.0,81,-99.99,,,-99.99,,2013-01-16 16:53:00,
2013-01-16 11:03:00,28.0,23.0,-100.00,SSW,210,8.0,14.0,81,-99.99,,,-99.99,,2013-01-16 17:03:00,
2013-01-16 11:12:00,30.0,24.0,-100.00,SSW,195,6.0,14.0,80,-99.99,,,-99.99,,2013-01-16 17:12:00,
2013-01-16 11:23:00,30.0,24.0,-100.00,SSW,205,9.0,16.0,78,-99.99,,,-99.99,,2013-01-16 17:23:00,
2013-01-16 11:33:00,30.0,24.0,-100.00,SSW,205,9.0,16.0,78,-99.99,,,-99.99,,2013-01-16 17:33:00,
2013-01-16 11:43:00,31.0,25.0,-100.00,SSW,200,9.0,16.0,76,-99.99,,,-99.99,,2013-01-16 17:43:00,
2013-01-16 11:53:00,33.0,25.0,-100.00,South,190,9.0,14.0,74,-99.99,,,-99.99,,2013-01-16 17:53:00,
2013-01-16 12:03:00,33.0,25.0,-100.00,South,190,9.0,14.0,74,-99.99,,,-99.99,,2013-01-16 18:03:00,
2013-01-16 12:13:00,34.0,25.0,-100.00,SSW,200,9.0,16.0,71,-99.99,,,-99.99,,2013-01-16 18:13:00,
2013-01-16 12:23:00,35.0,26.0,-100.00,SSW,210,9.0,17.0,69,-99.99,,,-99.99,,2013-01-16 18:23:00,
2013-01-16 12:33:00,35.0,26.0,-100.00,SSW,210,9.0,17.0,69,-99.99,,,-99.99,,2013-01-16 18:33:00,
2013-01-16 12:42:00,36.0,27.0,-100.00,SSW,205,8.0,19.0,69,-99.99,,,-99.99,,2013-01-16 18:42:00,
2013-01-16 12:53:00,36.0,25.0,-100.00,SW,225,11.0,27.0,64,-99.99,,,-99.99,,2013-01-16 18:53:00,
2013-01-16 13:03:00,36.0,25.0,-100.00,SW,225,11.0,27.0,64,-99.99,,,-99.99,,2013-01-16 19:03:00,
2013-01-16 13:12:00,37.0,25.0,-100.00,SSW,210,11.0,24.0,62,-99.99,,,-99.99,,2013-01-16 19:12:00,
2013-01-16 13:23:00,37.0,26.0,-100.00,SSW,210,17.0,26.0,62,-99.99,,,-99.99,,2013-01-16 19:23:00,
2013-01-16 13:31:00,39.0,27.0,-100.00,SSW,210,10.0,21.0,61,-99.99,,,-99.99,,2013-01-16 19:31:00,
2013-01-16 13:33:00,37.0,26.0,-100.00,SSW,210,17.0,26.0,62,-99.99,,,-99.99,,2013-01-16 19:33:00,
2013-01-16 13:43:00,38.0,26.0,-100.00,SW,215,13.0,21.0,62,-99.99,,,-99.99,,2013-01-16 19:43:00,
2013-01-16 13:53:00,38.0,26.0,-100.00,SSW,200,11.0,21.0,62,-99.99,,,-99.99,,2013-01-16 19:53:00,
2013-01-16 14:03:00,38.0,26.0,-100.00,SSW,200,11.0,21.0,62,-99.99,,,-99.99,,2013-01-16 20:03:00,
2013-01-16 14:12:00,39.0,27.0,-100.00,SSW,210,10.0,21.0,61,-99.99,,,-99.99,,2013-01-16 20:12:00,
2013-01-16 14:23:00,39.0,27.0,-100.00,SSW,210,10.0,21.0,61,-99.99,,,-99.99,,2013-01-16 20:23:00,
2013-01-16 14:43:00,40.0,25.0,-100.00,SSW,210,13.0,24.0,56,-99.99,,,-99.99,,2013-01-16 20:43:00,
2013-01-16 14:53:00,40.0,26.0,-100.00,SSW,210,11.0,19.0,57,-99.99,,,-99.99,,2013-01-16 20:53:00,
2013-01-16 15:03:00,40.0,26.0,-100.00,SSW,210,11.0,19.0,57,-99.99,,,-99.99,,2013-01-16 21:03:00,
2013-01-16 15:12:00,40.0,25.0,-100.00,SSW,210,16.0,24.0,55,-99.99,,,-99.99,,2013-01-16 21:12:00,
2013-01-16 15:22:00,39.0,26.0,-100.00,SSW,210,10.0,20.0,59,-99.99,,,-99.99,,2013-01-16 21:22:00,
2013-01-16 15:31:00,40.0,27.0,-100.00,SW,215,7.0,16.0,58,-99.99,,,-99.99,,2013-01-16 21:31:00,
2013-01-16 15:33:00,39.0,26.0,-100.00,SSW,210,10.0,20.0,59,-99.99,,,-99.99,,2013-01-16 21:33:00,
2013-01-16 15:43:00,40.0,26.0,-100.00,SSW,200,12.0,21.0,58,-99.99,,,-99.99,,2013-01-16 21:43:00,
2013-01-16 16:12:00,40.0,27.0,-100.00,SW,215,7.0,16.0,58,-99.99,,,-99.99,,2013-01-16 22:12:00,
2013-01-16 16:23:00,40.0,27.0,-100.00,SW,215,7.0,16.0,58,-99.99,,,-99.99,,2013-01-16 22:23:00,
2013-01-16 16:43:00,39.0,26.0,-100.00,WSW,240,4.0,10.0,59,-99.99,,,-99.99,,2013-01-16 22:43:00,
2013-01-16 16:53:00,39.0,26.0,-100.00,SSW,205,4.0,12.0,58,-99.99,,,-99.99,,2013-01-16 22:53:00,
2013-01-16 17:03:00,39.0,26.0,-100.00,SSW,205,4.0,12.0,58,-99.99,,,-99.99,,2013-01-16 23:03:00,
2013-01-16 17:12:00,39.0,26.0,-100.00,SW,225,5.0,11.0,60,-99.99,,,-99.99,,2013-01-16 23:12:00,
2013-01-16 17:23:00,38.0,26.0,-100.00,SSW,200,6.0,11.0,62,-99.99,,,-99.99,,2013-01-16 23:23:00,
2013-01-16 17:32:00,38.0,26.0,-100.00,SSW,200,6.0,11.0,62,-99.99,,,-99.99,,2013-01-16 23:32:00,
2013-01-16 17:42:00,38.0,26.0,-100.00,SSW,210,6.0,11.0,63,-99.99,,,-99.99,,2013-01-16 23:42:00,
2013-01-16 17:53:00,37.0,26.0,-100.00,SW,220,4.0,11.0,66,-99.99,,,-99.99,,2013-01-16 23:53:00,
2013-01-16 18:02:00,37.0,26.0,-100.00,SW,220,4.0,11.0,66,-99.99,,,-99.99,,2013-01-17 00:02:00,
2013-01-16 18:12:00,36.0,27.0,-100.00,SW,215,4.0,9.0,69,-99.99,,,-99.99,,2013-01-17 00:12:00,
2013-01-16 18:22:00,36.0,28.0,-100.00,SSW,210,5.0,8.0,72,-99.99,,,-99.99,,2013-01-17 00:22:00,
2013-01-16 18:32:00,36.0,28.0,-100.00,SSW,210,5.0,8.0,72,-99.99,,,-99.99,,2013-01-17 00:32:00,
2013-01-16 18:42:00,36.0,28.0,-100.00,SSW,210,5.0,8.0,72,-99.99,,,-99.99,,2013-01-17 00:42:00,
2013-01-16 18:53:00,35.0,29.0,-100.00,SW,215,1.0,6.0,79,-99.99,,,-99.99,,2013-01-17 00:53:00,
2013-01-16 19:02:00,35.0,29.0,-100.00,SW,215,1.0,6.0,79,-99.99,,,-99.99,,2013-01-17 01:02:00,
2013-01-16 19:12:00,34.0,29.0,-100.00,SSW,210,4.0,6.0,82,-99.99,,,-99.99,,2013-01-17 01:12:00,
2013-01-16 19:22:00,34.0,29.0,-100.00,SW,235,4.0,7.0,84,-99.99,,,-99.99,,2013-01-17 01:22:00,
2013-01-16 19:33:00,35.0,29.0,-100.00,WSW,240,6.0,10.0,78,-99.99,,,-99.99,,2013-01-17 01:33:00,
2013-01-16 19:42:00,35.0,29.0,-100.00,WSW,240,6.0,10.0,78,-99.99,,,-99.99,,2013-01-17 01:42:00,
2013-01-16 19:52:00,36.0,29.0,-100.00,WSW,250,6.0,10.0,74,-99.99,,,-99.99,,2013-01-17 01:52:00,
2013-01-16 20:02:00,36.0,29.0,-100.00,WSW,250,6.0,10.0,74,-99.99,,,-99.99,,2013-01-17 02:02:00,
2013-01-16 20:12:00,36.0,29.0,-100.00,WSW,245,4.0,9.0,74,-99.99,,,-99.99,,2013-01-17 02:12:00,
2013-01-16 20:22:00,36.0,28.0,-100.00,SW,230,4.0,11.0,73,-99.99,,,-99.99,,2013-01-17 02:22:00,
2013-01-16 20:32:00,36.0,28.0,-100.00,SW,230,4.0,11.0,73,-99.99,,,-99.99,,2013-01-17 02:32:00,
2013-01-16 20:42:00,36.0,28.0,-100.00,SW,230,4.0,11.0,73,-99.99,,,-99.99,,2013-01-17 02:42:00,
2013-01-16 21:03:00,35.0,28.0,-100.00,SW,230,2.0,6.0,76,-99.99,,,-99.99,,2013-01-17 03:03:00,
2013-01-16 21:12:00,35.0,28.0,-100.00,SW,230,0.0,6.0,76,-99.99,,,-99.99,,2013-01-17 03:12:00,
2013-01-16 21:22:00,34.0,28.0,-100.00,SSW,200,3.0,6.0,79,-99.99,,,-99.99,,2013-01-17 03:22:00,
2013-01-16 21:32:00,34.0,28.0,-100.00,SSW,200,3.0,6.0,79,-99.99,,,-99.99,,2013-01-17 03:32:00,
2013-01-16 21:42:00,33.0,28.0,-100.00,South,190,1.0,4.0,80,-99.99,,,-99.99,,2013-01-17 03:42:00,
2013-01-16 21:53:00,34.0,28.0,-100.00,SSW,195,3.0,5.0,78,-99.99,,,-99.99,,2013-01-17 03:53:00,
2013-01-16 22:02:00,34.0,28.0,-100.00,SSW,195,3.0,5.0,78,-99.99,,,-99.99,,2013-01-17 04:02:00,
2013-01-16 22:12:00,35.0,28.0,-100.00,SSW,205,2.0,6.0,78,-99.99,,,-99.99,,2013-01-17 04:12:00,
2013-01-16 22:22:00,34.0,28.0,-100.00,SSW,205,0.0,6.0,78,-99.99,,,-99.99,,2013-01-17 04:22:00,
2013-01-16 22:32:00,34.0,28.0,-100.00,SSW,205,0.0,6.0,78,-99.99,,,-99.99,,2013-01-17 04:32:00,
2013-01-16 22:42:00,34.0,28.0,-100.00,SSW,195,0.0,4.0,79,-99.99,,,-99.99,,2013-01-17 04:42:00,
2013-01-16 22:52:00,33.0,28.0,-100.00,SSW,200,1.0,4.0,81,-99.99,,,-99.99,,2013-01-17 04:52:00,
2013-01-16 23:04:00,33.0,28.0,-100.00,SSW,200,1.0,4.0,81,-99.99,,,-99.99,,2013-01-17 05:04:00,
2013-01-16 23:12:00,33.0,28.0,-100.00,South,190,0.0,4.0,82,-99.99,,,-99.99,,2013-01-17 05:12:00,
2013-01-16 23:22:00,33.0,28.0,-100.00,SSE,165,3.0,4.0,83,-99.99,,,-99.99,,2013-01-17 05:22:00,
2013-01-16 23:33:00,33.0,28.0,-100.00,SSE,165,3.0,4.0,83,-99.99,,,-99.99,,2013-01-17 05:33:00,
2013-01-16 23:42:00,33.0,29.0,-100.00,SSW,195,0.0,3.0,85,-99.99,,,-99.99,,2013-01-17 05:42:00,
2013-01-16 23:53:00,33.0,29.0,-100.00,South,170,0.0,0.0,86,-99.99,,,-99.99,,2013-01-17 05:53:00,